Time,TemperatureF,DewpointF,PressureIn,WindDirection,WindDirectionDegrees,WindSpeedMPH,WindSpeedGustMPH,Humidity,HourlyPrecipIn,Conditions,Clouds,dailyrainin,SoftwareType,DateUTC
2013-07-19 00:00:00,83.1,64.9,-100.00,SW,231,2.0,3.0,53,0.00,,,0.00,meteohub,2013-07-19 05:00:00,
2013-07-19 00:05:00,82.9,65.5,32.13,SSW,201,0.0,10.0,54,0.00,,,0.00,meteohub,2013-07-19 05:05:00,
2013-07-19 00:10:00,82.9,64.9,32.13,SSW,193,0.0,10.0,53,0.00,,,0.00,meteohub,2013-07-19 05:10:00,
2013-07-19 00:15:00,82.9,65.5,-100.00,South,181,0.0,10.0,54,0.00,,,0.00,meteohub,2013-07-19 05:15:00,
2013-07-19 00:20:00,82.9,64.9,32.13,SSW,212,3.0,3.0,53,0.00,,,0.00,meteohub,2013-07-19 05:20:00,
2013-07-19 00:25:00,82.9,65.1,-100.00,WSW,250,4.0,4.0,53,0.00,,,0.00,meteohub,2013-07-19 05:25:00,
2013-07-19 00:30:00,83.1,64.9,32.10,SSW,203,0.0,4.0,53,0.00,,,0.00,meteohub,2013-07-19 05:30:00,
2013-07-19 00:35:00,83.1,64.9,-100.00,SW,236,0.0,4.0,53,0.00,,,0.00,meteohub,2013-07-19 05:35:00,
2013-07-19 00:41:00,83.1,65.1,-100.00,SW,227,2.0,4.0,53,0.00,,,0.00,meteohub,2013-07-19 05:41:00,
2013-07-19 00:46:00,83.1,65.1,-100.00,SSW,203,3.0,4.0,53,0.00,,,0.00,meteohub,2013-07-19 05:46:00,
2013-07-19 00:51:00,83.1,64.6,-100.00,SW,220,2.0,9.0,52,0.00,,,0.00,meteohub,2013-07-19 05:51:00,
2013-07-19 00:56:00,83.1,64.9,-100.00,SSW,213,2.0,9.0,53,0.00,,,0.00,meteohub,2013-07-19 05:56:00,
2013-07-19 01:01:00,82.9,64.8,-100.00,SE,144,0.0,9.0,53,0.00,,,0.00,meteohub,2013-07-19 06:01:00,
2013-07-19 01:06:00,82.8,65.3,-100.00,SSW,197,0.0,8.0,54,0.00,,,0.00,meteohub,2013-07-19 06:06:00,
2013-07-19 01:12:00,82.6,64.6,32.10,SW,214,3.0,4.0,53,0.00,,,0.00,meteohub,2013-07-19 06:12:00,
2013-07-19 01:17:00,82.6,64.4,32.10,SW,218,0.0,4.0,53,0.00,,,0.00,meteohub,2013-07-19 06:17:00,
2013-07-19 01:22:00,82.4,64.9,32.19,SSW,202,0.0,3.0,54,0.00,,,0.00,meteohub,2013-07-19 06:22:00,
2013-07-19 01:27:00,82.2,65.3,-100.00,SSW,203,2.0,8.0,55,0.00,,,0.00,meteohub,2013-07-19 06:27:00,
2013-07-19 01:32:00,82.2,65.1,32.19,SSW,200,3.0,8.0,55,0.00,,,0.00,meteohub,2013-07-19 06:32:00,
2013-07-19 01:37:00,82.0,64.6,32.19,West,264,3.0,4.0,54,0.00,,,0.00,meteohub,2013-07-19 06:37:00,
2013-07-19 01:42:00,81.9,64.6,-100.00,SSW,206,0.0,4.0,54,0.00,,,0.00,meteohub,2013-07-19 06:42:00,
2013-07-19 01:47:00,81.9,64.9,32.04,SW,222,2.0,9.0,55,0.00,,,0.00,meteohub,2013-07-19 06:47:00,
2013-07-19 01:52:00,81.7,64.4,-100.00,SSW,196,2.0,9.0,54,0.00,,,0.00,meteohub,2013-07-19 06:52:00,
2013-07-19 01:57:00,81.7,64.8,-100.00,SW,232,4.0,9.0,55,0.00,,,0.00,meteohub,2013-07-19 06:57:00,
2013-07-19 02:02:00,81.7,65.3,-100.00,SW,235,4.0,4.0,56,0.00,,,0.00,meteohub,2013-07-19 07:02:00,
2013-07-19 02:07:00,81.5,65.3,-100.00,SW,216,0.0,4.0,56,0.00,,,0.00,meteohub,2013-07-19 07:07:00,
2013-07-19 02:12:00,81.5,64.6,-100.00,SW,222,0.0,4.0,55,0.00,,,0.00,meteohub,2013-07-19 07:12:00,
2013-07-19 02:17:00,81.5,64.2,-100.00,SSW,194,2.0,4.0,54,0.00,,,0.00,meteohub,2013-07-19 07:17:00,
2013-07-19 02:22:00,81.5,65.1,-100.00,SW,220,2.0,4.0,56,0.00,,,0.00,meteohub,2013-07-19 07:22:00,
2013-07-19 02:27:00,81.3,64.9,-100.00,SW,232,3.0,4.0,56,0.00,,,0.00,meteohub,2013-07-19 07:27:00,
2013-07-19 02:32:00,81.3,64.9,-100.00,SW,234,0.0,4.0,56,0.00,,,0.00,meteohub,2013-07-19 07:32:00,
2013-07-19 02:37:00,81.1,64.8,-100.00,WSW,252,2.0,4.0,56,0.00,,,0.00,meteohub,2013-07-19 07:37:00,
2013-07-19 02:42:00,81.0,65.3,-100.00,SW,222,2.0,4.0,57,0.00,,,0.00,meteohub,2013-07-19 07:42:00,
2013-07-19 02:47:00,81.0,65.1,-100.00,SW,224,3.0,4.0,57,0.00,,,0.00,meteohub,2013-07-19 07:47:00,
2013-07-19 02:52:00,80.8,65.5,-100.00,SW,232,0.0,4.0,58,0.00,,,0.00,meteohub,2013-07-19 07:52:00,
2013-07-19 02:57:00,80.4,65.3,-100.00,SSW,211,3.0,3.0,58,0.00,,,0.00,meteohub,2013-07-19 07:57:00,
2013-07-19 03:02:00,80.2,65.1,-100.00,WSW,239,3.0,3.0,58,0.00,,,0.00,meteohub,2013-07-19 08:02:00,
2013-07-19 03:08:00,80.2,65.5,-100.00,SSW,198,0.0,3.0,59,0.00,,,0.00,meteohub,2013-07-19 08:08:00,
2013-07-19 03:13:00,80.1,65.5,-100.00,SSW,207,0.0,3.0,59,0.00,,,0.00,meteohub,2013-07-19 08:13:00,
2013-07-19 03:18:00,79.7,65.1,-100.00,SW,221,3.0,3.0,59,0.00,,,0.00,meteohub,2013-07-19 08:18:00,
2013-07-19 03:23:00,79.7,65.7,-100.00,SSW,194,0.0,3.0,60,0.00,,,0.00,meteohub,2013-07-19 08:23:00,
2013-07-19 03:28:00,79.5,65.8,-100.00,SW,228,0.0,3.0,61,0.00,,,0.00,meteohub,2013-07-19 08:28:00,
2013-07-19 03:33:00,80.4,65.7,32.01,SW,218,0.0,3.0,61,0.00,,,0.00,meteohub,2013-07-19 08:33:00,
2013-07-19 03:38:00,85.3,65.5,-100.00,SSW,198,0.0,3.0,61,0.00,,,0.00,meteohub,2013-07-19 08:38:00,
2013-07-19 03:43:00,87.4,65.8,32.01,SW,218,0.0,3.0,62,0.00,,,0.00,meteohub,2013-07-19 08:43:00,
2013-07-19 03:48:00,88.2,65.7,32.01,SW,214,0.0,3.0,62,0.00,,,0.00,meteohub,2013-07-19 08:48:00,
2013-07-19 03:53:00,87.3,65.5,32.16,SW,233,0.0,3.0,62,0.00,,,0.00,meteohub,2013-07-19 08:53:00,
2013-07-19 03:58:00,83.7,65.5,32.16,WSW,256,2.0,3.0,62,0.00,,,0.00,meteohub,2013-07-19 08:58:00,
2013-07-19 04:03:00,81.0,65.3,32.16,SW,220,0.0,3.0,62,0.00,,,0.00,meteohub,2013-07-19 09:03:00,
2013-07-19 04:08:00,79.7,65.7,32.13,South,186,0.0,3.0,63,0.00,,,0.00,meteohub,2013-07-19 09:08:00,
2013-07-19 04:14:00,79.0,65.7,32.13,SW,218,0.0,4.0,63,0.00,,,0.00,meteohub,2013-07-19 09:14:00,
2013-07-19 04:19:00,78.4,65.7,32.13,WSW,243,2.0,4.0,63,0.00,,,0.00,meteohub,2013-07-19 09:19:00,
2013-07-19 04:24:00,78.3,65.7,32.07,SW,223,0.0,4.0,63,0.00,,,0.00,meteohub,2013-07-19 09:24:00,
2013-07-19 04:29:00,78.3,65.7,32.07,SW,230,0.0,3.0,63,0.00,,,0.00,meteohub,2013-07-19 09:29:00,
2013-07-19 04:34:00,81.0,65.8,32.07,SW,222,0.0,3.0,64,0.00,,,0.00,meteohub,2013-07-19 09:34:00,
2013-07-19 04:39:00,84.4,65.8,32.16,WSW,239,0.0,3.0,64,0.00,,,0.00,meteohub,2013-07-19 09:39:00,
2013-07-19 04:44:00,85.1,65.3,32.16,WSW,256,0.0,3.0,63,0.00,,,0.00,meteohub,2013-07-19 09:44:00,
2013-07-19 04:49:00,85.3,65.8,32.13,SSW,212,0.0,3.0,64,0.00,,,0.00,meteohub,2013-07-19 09:49:00,
2013-07-19 04:54:00,85.3,65.8,32.13,SW,227,0.0,3.0,65,0.00,,,0.00,meteohub,2013-07-19 09:54:00,
2013-07-19 04:59:00,82.4,65.8,32.13,SW,233,2.0,3.0,65,0.00,,,0.00,meteohub,2013-07-19 09:59:00,
2013-07-19 05:04:00,80.2,65.7,32.22,SW,220,0.0,3.0,65,0.00,,,0.00,meteohub,2013-07-19 10:04:00,
2013-07-19 05:10:00,78.8,65.5,32.22,SSW,209,0.0,3.0,65,0.00,,,0.00,meteohub,2013-07-19 10:10:00,
2013-07-19 05:15:00,77.9,66.0,32.22,SW,229,0.0,3.0,66,0.00,,,0.00,meteohub,2013-07-19 10:15:00,
2013-07-19 05:20:00,77.4,66.0,32.22,SW,229,0.0,3.0,66,0.00,,,0.00,meteohub,2013-07-19 10:20:00,
2013-07-19 05:23:00,77.2,65.8,32.22,SW,230,0.0,3.0,66,0.00,,,0.00,meteohub,2013-07-19 10:23:00,
2013-07-19 05:28:00,77.0,65.8,32.22,SW,214,0.0,3.0,66,0.00,,,0.00,meteohub,2013-07-19 10:28:00,
2013-07-19 05:33:00,76.8,65.7,32.22,SSW,212,0.0,2.0,66,0.00,,,0.00,meteohub,2013-07-19 10:33:00,
2013-07-19 05:38:00,76.5,65.8,32.22,SSW,209,0.0,3.0,67,0.00,,,0.00,meteohub,2013-07-19 10:38:00,
2013-07-19 05:43:00,76.5,65.8,32.22,SW,223,0.0,3.0,67,0.00,,,0.00,meteohub,2013-07-19 10:43:00,
2013-07-19 05:48:00,76.3,66.2,32.22,SW,226,0.0,3.0,68,0.00,,,0.00,meteohub,2013-07-19 10:48:00,
2013-07-19 05:53:00,76.1,66.0,32.22,SSW,199,0.0,2.0,68,0.00,,,0.00,meteohub,2013-07-19 10:53:00,
2013-07-19 05:58:00,76.1,66.0,32.22,SSW,207,2.0,3.0,68,0.00,,,0.00,meteohub,2013-07-19 10:58:00,
2013-07-19 06:03:00,75.9,65.8,32.22,SSW,199,0.0,3.0,68,0.00,,,0.00,meteohub,2013-07-19 11:03:00,
2013-07-19 06:09:00,75.7,65.8,32.22,SSW,212,0.0,3.0,68,0.00,,,0.00,meteohub,2013-07-19 11:09:00,
2013-07-19 06:14:00,75.7,65.7,32.22,SSW,192,0.0,3.0,68,0.00,,,0.00,meteohub,2013-07-19 11:14:00,
2013-07-19 06:19:00,75.6,65.8,32.22,SSW,197,0.0,3.0,69,0.00,,,0.00,meteohub,2013-07-19 11:19:00,
2013-07-19 06:24:00,75.6,65.8,32.22,South,191,0.0,3.0,69,0.00,,,0.00,meteohub,2013-07-19 11:24:00,
2013-07-19 06:29:00,75.4,65.7,32.22,SSW,202,0.0,3.0,69,0.00,,,0.00,meteohub,2013-07-19 11:29:00,
2013-07-19 06:34:00,75.4,66.2,32.22,SSW,197,0.0,2.0,70,0.00,,,0.00,meteohub,2013-07-19 11:34:00,
2013-07-19 06:39:00,75.4,66.2,32.22,SSW,192,0.0,2.0,70,0.00,,,0.00,meteohub,2013-07-19 11:39:00,
2013-07-19 06:44:00,75.4,66.2,32.22,South,177,0.0,2.0,70,0.00,,,0.00,meteohub,2013-07-19 11:44:00,
2013-07-19 06:49:00,75.4,66.0,32.22,SSW,193,0.0,2.0,70,0.00,,,0.00,meteohub,2013-07-19 11:49:00,
2013-07-19 06:54:00,75.4,66.4,32.19,South,189,0.0,2.0,71,0.00,,,0.00,meteohub,2013-07-19 11:54:00,
2013-07-19 06:59:00,75.4,65.8,32.19,South,183,0.0,2.0,70,0.00,,,0.00,meteohub,2013-07-19 11:59:00,
2013-07-19 07:05:00,75.2,66.7,32.19,South,176,0.0,2.0,72,0.00,,,0.00,meteohub,2013-07-19 12:05:00,
2013-07-19 07:10:00,75.4,66.7,-100.00,SSW,206,0.0,2.0,72,0.00,,,0.00,meteohub,2013-07-19 12:10:00,
2013-07-19 07:15:00,75.4,66.7,32.22,SW,216,0.0,2.0,72,0.00,,,0.00,meteohub,2013-07-19 12:15:00,
2013-07-19 07:20:00,75.4,67.1,32.22,SSW,205,0.0,3.0,73,0.00,,,0.00,meteohub,2013-07-19 12:20:00,
2013-07-19 07:25:00,75.6,67.3,32.22,SW,220,0.0,3.0,73,0.00,,,0.00,meteohub,2013-07-19 12:25:00,
2013-07-19 07:30:00,75.7,67.1,32.22,SW,225,3.0,3.0,72,0.00,,,0.00,meteohub,2013-07-19 12:30:00,
2013-07-19 07:35:00,76.1,67.5,32.22,SSW,211,0.0,3.0,72,0.00,,,0.00,meteohub,2013-07-19 12:35:00,
2013-07-19 07:40:00,76.5,66.7,32.22,SW,234,3.0,3.0,70,0.00,,,0.00,meteohub,2013-07-19 12:40:00,
2013-07-19 07:45:00,77.0,68.0,32.22,SSW,206,0.0,3.0,72,0.00,,,0.00,meteohub,2013-07-19 12:45:00,
2013-07-19 07:50:00,77.4,67.3,32.22,SW,216,0.0,3.0,70,0.00,,,0.00,meteohub,2013-07-19 12:50:00,
2013-07-19 07:56:00,77.7,67.6,32.22,SW,228,0.0,3.0,70,0.00,,,0.00,meteohub,2013-07-19 12:56:00,
2013-07-19 08:01:00,78.1,67.3,32.22,WSW,248,0.0,3.0,69,0.00,,,0.00,meteohub,2013-07-19 13:01:00,
2013-07-19 08:06:00,78.3,67.5,32.22,West,261,0.0,4.0,69,0.00,,,0.00,meteohub,2013-07-19 13:06:00,
2013-07-19 08:11:00,78.4,67.6,32.22,SW,227,2.0,4.0,69,0.00,,,0.00,meteohub,2013-07-19 13:11:00,
2013-07-19 08:16:00,78.8,67.8,32.22,SSW,207,0.0,4.0,69,0.00,,,0.00,meteohub,2013-07-19 13:16:00,
2013-07-19 08:21:00,79.0,68.0,32.22,WSW,244,0.0,3.0,69,0.00,,,0.00,meteohub,2013-07-19 13:21:00,
2013-07-19 08:26:00,79.0,67.1,32.22,WSW,239,3.0,3.0,67,0.00,,,0.00,meteohub,2013-07-19 13:26:00,
2013-07-19 08:31:00,79.2,67.1,32.22,WSW,250,0.0,4.0,67,0.00,,,0.00,meteohub,2013-07-19 13:31:00,
2013-07-19 08:36:00,79.3,67.6,32.22,WSW,248,0.0,4.0,68,0.00,,,0.00,meteohub,2013-07-19 13:36:00,
2013-07-19 08:41:00,79.3,67.5,32.22,WSW,245,0.0,4.0,67,0.00,,,0.00,meteohub,2013-07-19 13:41:00,
2013-07-19 08:47:00,79.2,67.3,32.22,WSW,254,0.0,2.0,67,0.00,,,0.00,meteohub,2013-07-19 13:47:00,
2013-07-19 08:52:00,78.8,67.3,32.22,WSW,256,0.0,2.0,67,0.00,,,0.00,meteohub,2013-07-19 13:52:00,
2013-07-19 08:57:00,78.8,67.8,32.22,SW,231,0.0,3.0,68,0.00,,,0.00,meteohub,2013-07-19 13:57:00,
2013-07-19 09:02:00,79.0,68.0,32.22,West,259,0.0,3.0,68,0.00,,,0.00,meteohub,2013-07-19 14:02:00,
2013-07-19 09:07:00,79.5,67.8,32.22,WSW,254,0.0,3.0,68,0.00,,,0.00,meteohub,2013-07-19 14:07:00,
2013-07-19 09:12:00,79.9,67.6,32.22,West,260,0.0,3.0,67,0.00,,,0.00,meteohub,2013-07-19 14:12:00,
2013-07-19 09:17:00,80.2,68.5,32.22,WSW,251,0.0,3.0,69,0.00,,,0.00,meteohub,2013-07-19 14:17:00,
2013-07-19 09:22:00,80.8,68.5,32.19,SW,236,0.0,3.0,68,0.00,,,0.00,meteohub,2013-07-19 14:22:00,
2013-07-19 09:27:00,81.3,68.9,32.19,WSW,237,0.0,3.0,68,0.00,,,0.00,meteohub,2013-07-19 14:27:00,
2013-07-19 09:32:00,81.9,68.5,32.19,SW,215,0.0,3.0,67,0.00,,,0.00,meteohub,2013-07-19 14:32:00,
2013-07-19 09:37:00,81.9,68.5,32.22,WSW,252,0.0,3.0,67,0.00,,,0.00,meteohub,2013-07-19 14:37:00,
2013-07-19 09:42:00,82.2,68.4,32.22,SW,220,3.0,6.0,66,0.00,,,0.00,meteohub,2013-07-19 14:42:00,
2013-07-19 09:47:00,82.8,68.5,32.22,SW,231,0.0,6.0,66,0.00,,,0.00,meteohub,2013-07-19 14:47:00,
2013-07-19 09:53:00,83.1,68.0,32.22,WSW,247,0.0,3.0,65,0.00,,,0.00,meteohub,2013-07-19 14:53:00,
2013-07-19 09:58:00,83.1,68.5,-100.00,WSW,237,0.0,3.0,66,0.00,,,0.00,meteohub,2013-07-19 14:58:00,
2013-07-19 10:03:00,82.9,68.5,32.22,West,260,0.0,4.0,66,0.00,,,0.00,meteohub,2013-07-19 15:03:00,
2013-07-19 10:08:00,82.9,68.0,32.22,NW,310,0.0,4.0,65,0.00,,,0.00,meteohub,2013-07-19 15:08:00,
2013-07-19 10:13:00,82.6,68.4,32.19,WNW,303,0.0,4.0,66,0.00,,,0.00,meteohub,2013-07-19 15:13:00,
2013-07-19 10:18:00,82.4,68.9,32.19,SW,235,0.0,2.0,67,0.00,,,0.00,meteohub,2013-07-19 15:18:00,
2013-07-19 10:23:00,82.9,69.3,32.13,WSW,245,0.0,2.0,67,0.00,,,0.00,meteohub,2013-07-19 15:23:00,
2013-07-19 10:28:00,83.5,69.3,-100.00,SW,230,0.0,3.0,66,0.00,,,0.00,meteohub,2013-07-19 15:28:00,
2013-07-19 10:33:00,84.7,70.0,-100.00,West,274,0.0,3.0,66,0.00,,,0.00,meteohub,2013-07-19 15:33:00,
2013-07-19 10:38:00,86.2,70.0,32.19,NW,319,0.0,3.0,65,0.00,,,0.00,meteohub,2013-07-19 15:38:00,
2013-07-19 10:44:00,86.7,70.3,32.19,WNW,286,0.0,3.0,65,0.00,,,0.00,meteohub,2013-07-19 15:44:00,
2013-07-19 10:49:00,86.7,69.4,32.19,West,270,0.0,3.0,63,0.00,,,0.00,meteohub,2013-07-19 15:49:00,
2013-07-19 10:54:00,86.5,68.9,32.22,West,260,0.0,0.0,62,0.00,,,0.00,meteohub,2013-07-19 15:54:00,
2013-07-19 10:59:00,86.5,70.2,32.22,West,280,0.0,0.0,64,0.00,,,0.00,meteohub,2013-07-19 15:59:00,
2013-07-19 11:04:00,86.7,68.9,32.10,NNW,334,0.0,0.0,62,0.00,,,0.00,meteohub,2013-07-19 16:04:00,
2013-07-19 11:09:00,87.1,68.9,32.10,NW,305,0.0,2.0,62,0.00,,,0.00,meteohub,2013-07-19 16:09:00,
2013-07-19 11:14:00,88.0,68.9,32.10,West,274,0.0,2.0,62,0.00,,,0.00,meteohub,2013-07-19 16:14:00,
2013-07-19 11:19:00,88.3,69.4,32.10,West,275,0.0,0.0,62,0.00,,,0.00,meteohub,2013-07-19 16:19:00,
2013-07-19 11:25:00,89.1,69.1,32.19,West,276,0.0,0.0,61,0.00,,,0.00,meteohub,2013-07-19 16:25:00,
2013-07-19 11:30:00,90.0,68.7,32.19,West,276,0.0,0.0,60,0.00,,,0.00,meteohub,2013-07-19 16:30:00,
2013-07-19 11:35:00,89.4,68.7,32.22,West,276,0.0,0.0,60,0.00,,,0.00,meteohub,2013-07-19 16:35:00,
2013-07-19 11:40:00,89.1,68.5,32.22,West,275,0.0,0.0,59,0.00,,,0.00,meteohub,2013-07-19 16:40:00,
2013-07-19 11:45:00,88.5,68.7,32.22,West,275,0.0,0.0,59,0.00,,,0.00,meteohub,2013-07-19 16:45:00,
2013-07-19 11:50:00,88.3,70.5,32.22,WNW,287,0.0,0.0,61,0.00,,,0.00,meteohub,2013-07-19 16:50:00,
2013-07-19 11:55:00,88.7,70.7,32.22,WNW,294,0.0,0.0,60,0.00,,,0.00,meteohub,2013-07-19 16:55:00,
2013-07-19 12:00:00,89.8,70.3,32.22,West,281,0.0,0.0,58,0.00,,,0.00,meteohub,2013-07-19 17:00:00,
2013-07-19 12:06:00,90.9,70.5,32.22,West,262,0.0,0.0,58,0.00,,,0.00,meteohub,2013-07-19 17:06:00,
2013-07-19 12:11:00,91.0,69.4,32.22,WNW,293,0.0,0.0,57,0.00,,,0.00,meteohub,2013-07-19 17:11:00,
2013-07-19 12:16:00,90.9,69.8,-100.00,WNW,293,0.0,0.0,58,0.00,,,0.00,meteohub,2013-07-19 17:16:00,
2013-07-19 12:21:00,90.3,69.8,-100.00,West,280,0.0,0.0,58,0.00,,,0.00,meteohub,2013-07-19 17:21:00,
2013-07-19 12:26:00,89.8,69.4,-100.00,West,279,0.0,0.0,57,0.00,,,0.00,meteohub,2013-07-19 17:26:00,
2013-07-19 12:31:00,89.2,70.2,-100.00,West,279,0.0,0.0,58,0.00,,,0.00,meteohub,2013-07-19 17:31:00,
2013-07-19 12:36:00,88.7,71.1,-100.00,West,279,0.0,0.0,59,0.00,,,0.00,meteohub,2013-07-19 17:36:00,
2013-07-19 12:41:00,88.3,71.2,-100.00,WNW,289,0.0,0.0,59,0.00,,,0.00,meteohub,2013-07-19 17:41:00,
2013-07-19 12:46:00,87.6,72.5,32.16,NNW,340,0.0,0.0,61,0.00,,,0.00,meteohub,2013-07-19 17:46:00,
2013-07-19 12:52:00,87.4,71.6,-100.00,NNW,345,0.0,0.0,58,0.00,,,0.00,meteohub,2013-07-19 17:52:00,
2013-07-19 12:57:00,88.5,72.1,-100.00,North,11,0.0,0.0,57,0.00,,,0.00,meteohub,2013-07-19 17:57:00,
2013-07-19 13:02:00,89.4,71.8,-100.00,North,2,0.0,0.0,55,0.00,,,0.00,meteohub,2013-07-19 18:02:00,
2013-07-19 13:07:00,91.4,70.9,-100.00,North,10,0.0,0.0,52,0.00,,,0.00,meteohub,2013-07-19 18:07:00,
2013-07-19 13:12:00,91.6,70.7,-100.00,NNE,13,0.0,0.0,52,0.00,,,0.00,meteohub,2013-07-19 18:12:00,
2013-07-19 13:17:00,91.2,70.0,32.19,North,2,0.0,0.0,51,0.00,,,0.00,meteohub,2013-07-19 18:17:00,
2013-07-19 13:22:00,91.4,69.4,-100.00,NNW,348,0.0,0.0,49,0.00,,,0.00,meteohub,2013-07-19 18:22:00,
2013-07-19 13:27:00,91.8,69.3,-100.00,NNE,14,0.0,0.0,48,0.00,,,0.00,meteohub,2013-07-19 18:27:00,
2013-07-19 13:32:00,91.9,68.2,-100.00,North,9,0.0,0.0,47,0.00,,,0.00,meteohub,2013-07-19 18:32:00,
2013-07-19 13:37:00,91.8,68.7,32.22,WNW,284,0.0,0.0,48,0.00,,,0.00,meteohub,2013-07-19 18:37:00,
2013-07-19 13:42:00,92.1,67.1,32.22,WNW,284,0.0,0.0,45,0.00,,,0.00,meteohub,2013-07-19 18:42:00,
2013-07-19 13:47:00,94.6,67.8,32.22,WNW,284,0.0,0.0,46,0.00,,,0.00,meteohub,2013-07-19 18:47:00,
2013-07-19 13:52:00,95.0,66.6,32.22,West,276,0.0,0.0,44,0.00,,,0.00,meteohub,2013-07-19 18:52:00,
2013-07-19 13:57:00,94.1,67.3,32.22,West,276,0.0,0.0,45,0.00,,,0.00,meteohub,2013-07-19 18:57:00,
2013-07-19 14:02:00,93.6,68.0,32.22,West,276,0.0,0.0,46,0.00,,,0.00,meteohub,2013-07-19 19:02:00,
2013-07-19 14:07:00,93.6,68.0,32.22,West,276,0.0,0.0,45,0.00,,,0.00,meteohub,2013-07-19 19:07:00,
2013-07-19 14:12:00,93.6,68.5,32.22,WNW,294,0.0,0.0,45,0.00,,,0.00,meteohub,2013-07-19 19:12:00,
2013-07-19 14:17:00,93.4,69.6,32.22,North,10,0.0,0.0,46,0.00,,,0.00,meteohub,2013-07-19 19:17:00,
2013-07-19 14:22:00,93.6,70.2,32.22,NNE,17,0.0,0.0,46,0.00,,,0.00,meteohub,2013-07-19 19:22:00,
2013-07-19 14:27:00,93.7,69.3,32.22,North,357,0.0,0.0,44,0.00,,,0.00,meteohub,2013-07-19 19:27:00,
2013-07-19 14:32:00,93.4,70.0,32.22,NNE,12,0.0,0.0,45,0.00,,,0.00,meteohub,2013-07-19 19:32:00,
2013-07-19 14:37:00,93.4,69.1,32.22,North,6,0.0,0.0,43,0.00,,,0.00,meteohub,2013-07-19 19:37:00,
2013-07-19 14:42:00,93.7,69.6,32.22,North,9,0.0,0.0,43,0.00,,,0.00,meteohub,2013-07-19 19:42:00,
2013-07-19 14:47:00,94.1,68.5,32.22,North,6,0.0,0.0,42,0.00,,,0.00,meteohub,2013-07-19 19:47:00,
2013-07-19 14:52:00,94.5,67.8,32.13,North,4,0.0,0.0,42,0.00,,,0.00,meteohub,2013-07-19 19:52:00,
2013-07-19 14:57:00,95.2,68.0,32.13,North,10,0.0,0.0,42,0.00,,,0.00,meteohub,2013-07-19 19:57:00,
2013-07-19 15:02:00,95.5,68.5,32.13,NNE,27,0.0,0.0,43,0.00,,,0.00,meteohub,2013-07-19 20:02:00,
2013-07-19 15:07:00,95.4,66.2,32.19,ENE,72,0.0,0.0,40,0.00,,,0.00,meteohub,2013-07-19 20:07:00,
2013-07-19 17:09:00,94.8,64.4,32.22,NNE,28,0.0,0.0,38,0.00,,,0.00,meteohub,2013-07-19 22:09:00,
2013-07-19 17:12:00,94.8,63.5,32.22,NNE,12,0.0,0.0,37,0.00,,,0.00,meteohub,2013-07-19 22:12:00,
2013-07-19 17:17:00,94.5,61.7,32.22,North,9,0.0,0.0,35,0.00,,,0.00,meteohub,2013-07-19 22:17:00,
2013-07-19 17:22:00,94.5,61.5,32.22,North,1,0.0,0.0,35,0.00,,,0.00,meteohub,2013-07-19 22:22:00,
2013-07-19 17:27:00,94.5,62.1,32.22,NNW,342,0.0,0.0,36,0.00,,,0.00,meteohub,2013-07-19 22:27:00,
2013-07-19 17:32:00,94.5,62.8,32.22,North,357,0.0,0.0,37,0.00,,,0.00,meteohub,2013-07-19 22:32:00,
2013-07-19 17:37:00,94.1,62.6,32.22,North,11,0.0,0.0,37,0.00,,,0.00,meteohub,2013-07-19 22:37:00,
2013-07-19 17:42:00,93.9,62.4,32.22,North,353,0.0,0.0,37,0.00,,,0.00,meteohub,2013-07-19 22:42:00,
2013-07-19 17:47:00,93.4,63.0,32.22,North,6,0.0,0.0,38,0.00,,,0.00,meteohub,2013-07-19 22:47:00,
2013-07-19 17:53:00,92.1,63.0,32.22,NNE,27,0.0,0.0,38,0.00,,,0.00,meteohub,2013-07-19 22:53:00,
2013-07-19 17:58:00,91.2,63.0,32.22,North,357,0.0,0.0,38,0.00,,,0.00,meteohub,2013-07-19 22:58:00,
2013-07-19 18:03:00,90.9,63.7,32.22,North,10,0.0,0.0,39,0.00,,,0.00,meteohub,2013-07-19 23:03:00,
2013-07-19 18:08:00,90.7,64.2,32.22,NNE,33,0.0,0.0,40,0.00,,,0.00,meteohub,2013-07-19 23:08:00,
2013-07-19 18:13:00,90.7,63.5,32.22,North,5,0.0,0.0,39,0.00,,,0.00,meteohub,2013-07-19 23:13:00,
2013-07-19 18:18:00,90.3,63.3,32.22,NNE,19,0.0,0.0,39,0.00,,,0.00,meteohub,2013-07-19 23:18:00,
2013-07-19 18:23:00,90.1,63.1,32.22,NNE,23,0.0,0.0,39,0.00,,,0.00,meteohub,2013-07-19 23:23:00,
2013-07-19 18:28:00,90.0,60.8,32.22,NNE,19,0.0,0.0,36,0.00,,,0.00,meteohub,2013-07-19 23:28:00,
2013-07-19 18:33:00,89.8,59.2,32.22,NE,34,0.0,0.0,34,0.00,,,0.00,meteohub,2013-07-19 23:33:00,
2013-07-19 18:38:00,89.8,59.0,32.22,NE,41,0.0,0.0,34,0.00,,,0.00,meteohub,2013-07-19 23:38:00,
2013-07-19 18:44:00,89.6,59.7,32.22,North,4,0.0,0.0,35,0.00,,,0.00,meteohub,2013-07-19 23:44:00,
2013-07-19 18:49:00,89.2,61.2,32.22,North,5,0.0,0.0,37,0.00,,,0.00,meteohub,2013-07-19 23:49:00,
2013-07-19 18:54:00,90.0,60.3,32.22,North,9,0.0,0.0,36,0.00,,,0.00,meteohub,2013-07-19 23:54:00,
2013-07-19 18:59:00,91.2,60.1,32.22,North,3,0.0,0.0,36,0.00,,,0.00,meteohub,2013-07-19 23:59:00,
2013-07-19 19:04:00,91.8,61.5,32.22,NNE,19,0.0,0.0,38,0.00,,,0.00,meteohub,2013-07-20 00:04:00,
2013-07-19 19:09:00,92.1,62.2,32.22,North,10,0.0,0.0,39,0.00,,,0.00,meteohub,2013-07-20 00:09:00,
2013-07-19 19:14:00,92.5,62.4,32.22,NE,43,0.0,0.0,39,0.00,,,0.00,meteohub,2013-07-20 00:14:00,
2013-07-19 19:19:00,92.5,62.4,32.22,NNE,33,0.0,0.0,39,0.00,,,0.00,meteohub,2013-07-20 00:19:00,
2013-07-19 19:24:00,92.3,63.3,32.22,NNE,33,0.0,0.0,40,0.00,,,0.00,meteohub,2013-07-20 00:24:00,
2013-07-19 19:29:00,92.3,62.6,32.22,NNE,32,0.0,0.0,39,0.00,,,0.00,meteohub,2013-07-20 00:29:00,
2013-07-19 19:35:00,92.1,62.6,32.22,NNE,15,0.0,0.0,39,0.00,,,0.00,meteohub,2013-07-20 00:35:00,
2013-07-19 19:40:00,91.8,63.3,32.22,NNE,15,0.0,0.0,40,0.00,,,0.00,meteohub,2013-07-20 00:40:00,
2013-07-19 19:45:00,90.7,63.1,32.22,NE,37,0.0,0.0,40,0.00,,,0.00,meteohub,2013-07-20 00:45:00,
2013-07-19 19:50:00,90.1,63.0,32.22,NE,51,0.0,0.0,40,0.00,,,0.00,meteohub,2013-07-20 00:50:00,
2013-07-19 19:55:00,89.6,63.0,32.22,NE,51,0.0,0.0,40,0.00,,,0.00,meteohub,2013-07-20 00:55:00,
2013-07-19 20:00:00,89.2,63.0,32.22,ENE,57,0.0,0.0,40,0.00,,,0.00,meteohub,2013-07-20 01:00:00,
2013-07-19 20:05:00,88.9,63.0,32.22,ENE,57,0.0,0.0,40,0.00,,,0.00,meteohub,2013-07-20 01:05:00,
2013-07-19 20:10:00,88.5,62.8,32.22,NE,49,0.0,0.0,40,0.00,,,0.00,meteohub,2013-07-20 01:10:00,
2013-07-19 20:15:00,88.3,62.4,32.22,NE,50,0.0,0.0,40,0.00,,,0.00,meteohub,2013-07-20 01:15:00,
2013-07-19 20:20:00,88.0,63.0,32.22,NE,49,0.0,0.0,41,0.00,,,0.00,meteohub,2013-07-20 01:20:00,
2013-07-19 20:25:00,87.6,63.1,32.22,NE,49,0.0,0.0,42,0.00,,,0.00,meteohub,2013-07-20 01:25:00,
2013-07-19 20:31:00,87.3,63.0,32.22,NE,49,0.0,0.0,42,0.00,,,0.00,meteohub,2013-07-20 01:31:00,
2013-07-19 20:36:00,86.9,63.1,32.19,North,7,0.0,0.0,43,0.00,,,0.00,meteohub,2013-07-20 01:36:00,
2013-07-19 20:41:00,86.7,62.8,32.19,NNE,28,0.0,0.0,43,0.00,,,0.00,meteohub,2013-07-20 01:41:00,
2013-07-19 20:46:00,86.4,63.5,32.19,NNE,27,0.0,0.0,44,0.00,,,0.00,meteohub,2013-07-20 01:46:00,
2013-07-19 20:51:00,86.0,63.1,32.22,NNE,27,0.0,0.0,44,0.00,,,0.00,meteohub,2013-07-20 01:51:00,
2013-07-19 20:56:00,85.6,63.5,32.22,NNE,24,0.0,0.0,45,0.00,,,0.00,meteohub,2013-07-20 01:56:00,
2013-07-19 21:01:00,85.5,64.4,32.22,NNE,15,0.0,0.0,47,0.00,,,0.00,meteohub,2013-07-20 02:01:00,
2013-07-19 21:06:00,85.3,64.4,32.22,NNE,14,0.0,0.0,47,0.00,,,0.00,meteohub,2013-07-20 02:06:00,
2013-07-19 21:11:00,86.4,64.8,32.22,NNE,15,0.0,0.0,48,0.00,,,0.00,meteohub,2013-07-20 02:11:00,
2013-07-19 21:16:00,87.1,65.1,32.22,NNE,27,0.0,0.0,49,0.00,,,0.00,meteohub,2013-07-20 02:16:00,
2013-07-19 21:22:00,87.1,65.3,32.22,NNE,30,0.0,0.0,50,0.00,,,0.00,meteohub,2013-07-20 02:22:00,
2013-07-19 21:27:00,87.1,65.8,32.22,NE,41,0.0,0.0,51,0.00,,,0.00,meteohub,2013-07-20 02:27:00,
2013-07-19 21:32:00,86.2,65.5,32.22,NE,47,0.0,0.0,51,0.00,,,0.00,meteohub,2013-07-20 02:32:00,
2013-07-19 21:37:00,85.3,65.1,32.22,NNE,24,0.0,0.0,51,0.00,,,0.00,meteohub,2013-07-20 02:37:00,
2013-07-19 21:42:00,84.4,64.8,32.22,NE,40,0.0,0.0,51,0.00,,,0.00,meteohub,2013-07-20 02:42:00,
2013-07-19 21:47:00,83.8,64.6,32.22,NE,40,0.0,0.0,51,0.00,,,0.00,meteohub,2013-07-20 02:47:00,
2013-07-19 21:52:00,83.1,64.4,32.22,NE,40,0.0,0.0,51,0.00,,,0.00,meteohub,2013-07-20 02:52:00,
2013-07-19 21:57:00,82.8,64.2,32.22,NE,40,0.0,0.0,51,0.00,,,0.00,meteohub,2013-07-20 02:57:00,
2013-07-19 22:02:00,82.4,64.6,32.22,NE,40,0.0,0.0,52,0.00,,,0.00,meteohub,2013-07-20 03:02:00,
2013-07-19 22:07:00,82.0,64.4,32.22,NE,40,0.0,0.0,52,0.00,,,0.00,meteohub,2013-07-20 03:07:00,
2013-07-19 22:12:00,81.9,63.7,32.22,NE,40,0.0,0.0,51,0.00,,,0.00,meteohub,2013-07-20 03:12:00,
2013-07-19 22:17:00,81.5,64.0,32.22,NE,40,0.0,0.0,52,0.00,,,0.00,meteohub,2013-07-20 03:17:00,
2013-07-19 22:22:00,81.3,63.9,32.22,NE,40,0.0,0.0,52,0.00,,,0.00,meteohub,2013-07-20 03:22:00,
2013-07-19 22:27:00,81.1,63.7,32.22,NE,40,0.0,0.0,52,0.00,,,0.00,meteohub,2013-07-20 03:27:00,
2013-07-19 22:32:00,81.0,63.7,-100.00,NE,40,0.0,0.0,52,0.00,,,0.00,meteohub,2013-07-20 03:32:00,
2013-07-19 22:37:00,80.8,63.9,32.22,NE,40,0.0,0.0,53,0.00,,,0.00,meteohub,2013-07-20 03:37:00,
2013-07-19 22:42:00,80.6,63.7,32.22,NE,40,0.0,0.0,53,0.00,,,0.00,meteohub,2013-07-20 03:42:00,
2013-07-19 22:47:00,80.4,63.3,32.22,NNE,19,0.0,0.0,53,0.00,,,0.00,meteohub,2013-07-20 03:47:00,
2013-07-19 22:52:00,80.4,63.9,32.22,NNE,14,0.0,0.0,54,0.00,,,0.00,meteohub,2013-07-20 03:52:00,
2013-07-19 22:57:00,80.2,64.0,32.22,North,4,0.0,0.0,55,0.00,,,0.00,meteohub,2013-07-20 03:57:00,
2013-07-19 23:01:00,80.1,64.6,32.22,North,4,0.0,0.0,56,0.00,,,0.00,meteohub,2013-07-20 04:01:00,
2013-07-19 23:02:00,80.1,64.6,32.22,North,4,0.0,0.0,56,0.00,,,0.00,meteohub,2013-07-20 04:02:00,
2013-07-19 23:04:00,80.1,64.4,32.22,North,4,0.0,0.0,56,0.00,,,0.00,meteohub,2013-07-20 04:04:00,
2013-07-19 23:06:00,79.9,64.8,32.22,North,4,0.0,0.0,57,0.00,,,0.00,meteohub,2013-07-20 04:06:00,
2013-07-19 23:11:00,79.7,65.1,32.22,North,4,0.0,0.0,58,0.00,,,0.00,meteohub,2013-07-20 04:11:00,
2013-07-19 23:17:00,79.5,64.9,32.22,North,4,0.0,0.0,58,0.00,,,0.00,meteohub,2013-07-20 04:17:00,
2013-07-19 23:22:00,79.2,64.9,32.22,North,4,0.0,0.0,58,0.00,,,0.00,meteohub,2013-07-20 04:22:00,
2013-07-19 23:27:00,79.0,64.8,32.22,North,4,0.0,0.0,58,0.00,,,0.00,meteohub,2013-07-20 04:27:00,
2013-07-19 23:32:00,78.8,64.0,32.22,North,4,0.0,0.0,57,0.00,,,0.00,meteohub,2013-07-20 04:32:00,
2013-07-19 23:37:00,78.8,64.4,32.22,North,5,0.0,0.0,58,0.00,,,0.00,meteohub,2013-07-20 04:37:00,
2013-07-19 23:42:00,78.6,64.8,32.22,North,5,0.0,0.0,59,0.00,,,0.00,meteohub,2013-07-20 04:42:00,
2013-07-19 23:47:00,78.4,65.1,32.22,North,5,0.0,0.0,60,0.00,,,0.00,meteohub,2013-07-20 04:47:00,
2013-07-19 23:52:00,78.4,64.9,32.22,North,5,0.0,0.0,60,0.00,,,0.00,meteohub,2013-07-20 04:52:00,
2013-07-19 23:57:00,78.1,65.3,32.22,North,5,0.0,0.0,61,0.00,,,0.00,meteohub,2013-07-20 04:57:00,